QPF
0.03 0.03 0.03 0.03 0.01 0.01 0.01 0.01 0.02 0.03 0.03 0.02 0.02 0.02 0.01 0.01 0.01 0.01 0.01 0.01 0.02 0.02 0.02 0.01 0.01 0.01 0.01 0.01 0.02 0.02 0.02 0.02 0.01 0.01 0.02 0.02 0.02 0.02
0.03 0.03 0.03 0.03 0.02 0.01 0.01 0.01 0.01 0.01 0.02 0.02 0.02 0.02 0.02 0.02 0.02 0.01 0.01 0.01 0.02 0.02 0.02 0.01 0.01 0.01 0.01 0.01 0.02 0.02 0.02 0.02 0.02 0.02 0.02 0.02 0.02 0.02
0.02 0.03 0.03 0.03 0.03 0.02 0.01 0.01 0.01 0.01 0.01 0.02 0.02 0.01 0.01 0.01 0.02 0.02 0.01 0.01 0.02 0.02 0.02 0.02 0.02 0.02 0.02 0.02 0.02 0.02 0.02 0.02 0.02 0.03 0.03 0.03 0.03 0.03
0.02 0.03 0.03 0.03 0.04 0.03 0.02 0.02 0.01 0.01 0.01 0.02 0.02 0.02 0.01 0.01 0.01 0.01 0.01 0.01 0.02 0.02 0.02 0.02 0.02 0.02 0.03 0.02 0.02 0.02 0.02 0.02 0.02 0.02 0.02 0.03 0.03 0.03
0.02 0.02 0.03 0.03 0.04 0.04 0.03 0.02 0.02 0.02 0.02 0.02 0.02 0.02 0.01 0.01 0.01 0.01 0.01 0.01 0.01 0.02 0.02 0.02 0.02 0.02 0.03 0.04 0.03 0.03 0.03 0.02 0.02 0.02 0.02 0.02 0.02 0.02
0.02 0.02 0.02 0.03 0.03 0.03 0.03 0.03 0.02 0.02 0.02 0.02 0.02 0.02 0.01 0.01 0.01 0.01 0.01 0.02 0.02 0.01 0.02 0.02 0.02 0.02 0.03 0.03 0.04 0.04 0.03 0.03 0.03 0.03 0.02 0.02 0.02 0.02
0.02 0.02 0.02 0.02 0.03 0.03 0.03 0.02 0.02 0.02 0.02 0.02 0.02 0.02 0.01 0.01 0.01 0.01 0.02 0.02 0.02 0.02 0.02 0.01 0.01 0.02 0.02 0.03 0.05 0.06 0.05 0.04 0.04 0.03 0.02 0.02 0.02 0.03
0.02 0.03 0.03 0.03 0.03 0.03 0.03 0.02 0.03 0.03 0.03 0.03 0.02 0.02 0.01 0.01 0.01 0.02 0.02 0.02 0.02 0.02 0.02 0.02 0.02 0.02 0.02 0.02 0.03 0.05 0.05 0.05 0.04 0.04 0.02 0.02 0.02 0.02
0.03 0.02 0.02 0.03 0.03 0.03 0.03 0.03 0.03 0.03 0.03 0.03 0.03 0.02 0.01 0.01 0.01 0.01 0.01 0.01 0.01 0.01 0.02 0.03 0.03 0.03 0.02 0.02 0.03 0.03 0.04 0.04 0.04 0.05 0.03 0.02 0.02 0.02
0.03 0.02 0.02 0.02 0.03 0.03 0.03 0.03 0.02 0.02 0.02 0.02 0.02 0.01 0.01 0.01 0.02 0.02 0.02 0.02 0.02 0.02 0.02 0.02 0.03 0.02 0.02 0.02 0.02 0.03 0.03 0.04 0.04 0.06 0.06 0.04 0.03 0.02
0.02 0.02 0.02 0.02 0.02 0.02 0.03 0.03 0.03 0.02 0.02 0.03 0.02 0.02 0.02 0.02 0.02 0.03 0.04 0.04 0.04 0.03 0.02 0.03 0.02 0.02 0.02 0.02 0.02 0.03 0.03 0.04 0.04 0.05 0.06 0.05 0.03 0.03
0.02 0.02 0.02 0.02 0.02 0.03 0.03 0.03 0.03 0.03 0.02 0.03 0.03 0.02 0.02 0.02 0.03 0.04 0.04 0.04 0.04 0.03 0.02 0.03 0.03 0.03 0.03 0.03 0.02 0.03 0.03 0.03 0.04 0.04 0.05 0.05 0.04 0.04
0.03 0.03 0.02 0.02 0.02 0.03 0.03 0.03 0.03 0.03 0.03 0.03 0.03 0.02 0.02 0.02 0.02 0.03 0.03 0.03 0.04 0.03 0.02 0.02 0.03 0.03 0.03 0.03 0.03 0.02 0.02 0.03 0.03 0.04 0.05 0.05 0.05 0.05
0.03 0.02 0.02 0.02 0.02 0.03 0.03 0.03 0.04 0.04 0.04 0.04 0.03 0.03 0.02 0.02 0.02 0.03 0.03 0.03 0.03 0.03 0.02 0.02 0.03 0.03 0.04 0.03 0.03 0.02 0.02 0.02 0.03 0.03 0.04 0.05 0.05 0.05
0.02 0.02 0.02 0.03 0.03 0.03 0.03 0.03 0.04 0.04 0.04 0.04 0.03 0.02 0.02 0.02 0.02 0.02 0.02 0.03 0.03 0.03 0.02 0.02 0.02 0.03 0.03 0.03 0.02 0.02 0.01 0.02 0.02 0.02 0.03 0.03 0.03 0.03
0.02 0.02 0.02 0.03 0.03 0.03 0.03 0.02 0.02 0.02 0.03 0.03 0.02 0.02 0.01 0.01 0.02 0.02 0.02 0.03 0.03 0.03 0.03 0.02 0.02 0.02 0.03 0.02 0.02 0.02 0.01 0.01 0.02 0.02 0.02 0.03 0.03 0.03
0.03 0.03 0.03 0.03 0.03 0.03 0.02 0.02 0.02 0.02 0.03 0.02 0.02 0.02 0.02 0.02 0.02 0.02 0.02 0.02 0.03 0.03 0.03 0.03 0.02 0.02 0.02 0.02 0.02 0.02 0.02 0.02 0.02 0.02 0.03 0.03 0.03 0.03
0.05 0.04 0.03 0.03 0.03 0.02 0.02 0.02 0.01 0.02 0.02 0.02 0.02 0.02 0.02 0.02 0.02 0.02 0.02 0.02 0.02 0.02 0.02 0.02 0.02 0.02 0.03 0.02 0.02 0.02 0.02 0.02 0.02 0.02 0.03 0.03 0.03 0.03
0.05 0.04 0.03 0.02 0.02 0.02 0.02 0.01 0.01 0.01 0.02 0.02 0.02 0.02 0.02 0.01 0.01 0.01 0.02 0.02 0.02 0.02 0.02 0.02 0.02 0.02 0.03 0.02 0.02 0.01 0.01 0.02 0.02 0.03 0.03 0.03 0.03 0.02
0.05 0.05 0.03 0.02 0.02 0.02 0.02 0.01 0.01 0.02 0.02 0.02 0.02 0.02 0.02 0.02 0.02 0.02 0.01 0.01 0.01 0.02 0.02 0.02 0.02 0.02 0.02 0.02 0.01 0.01 0.01 0.02 0.02 0.03 0.03 0.03 0.03 0.03
0.04 0.04 0.03 0.03 0.02 0.02 0.02 0.02 0.02 0.02 0.02 0.02 0.02 0.02 0.02 0.02 0.02 0.02 0.01 0.01 0.02 0.02 0.02 0.02 0.02 0.02 0.02 0.03 0.03 0.02 0.02 0.02 0.03 0.03 0.03 0.04 0.03 0.03
0.04 0.04 0.03 0.03 0.03 0.03 0.03 0.03 0.03 0.03 0.02 0.02 0.02 0.02 0.02 0.02 0.02 0.02 0.02 0.02 0.02 0.01 0.01 0.02 0.02 0.02 0.03 0.03 0.03 0.03 0.03 0.03 0.03 0.03 0.03 0.04 0.04 0.04
0.03 0.03 0.03 0.03 0.04 0.04 0.03 0.03 0.04 0.03 0.03 0.02 0.02 0.02 0.02 0.02 0.02 0.02 0.02 0.02 0.02 0.02 0.02 0.02 0.03 0.03 0.03 0.03 0.03 0.03 0.03 0.03 0.03 0.03 0.03 0.03 0.03 0.03
MSLP
1020.62 1021.14 1021.60 1022.02 1022.38 1022.71 1023.00 1023.29 1023.57 1023.85 1024.13 1024.39 1024.63 1024.85 1025.03 1025.18 1025.31 1025.42 1025.54 1025.66 1025.80 1025.96 1026.13 1026.32 1026.50 1026.69 1026.86 1027.02 1027.18 1027.32 1027.46 1027.59 1027.70 1027.79 1027.85 1027.86 1027.82 1027.73
1019.99 1020.52 1020.98 1021.37 1021.70 1021.98 1022.24 1022.50 1022.76 1023.03 1023.32 1023.62 1023.90 1024.17 1024.40 1024.60 1024.77 1024.92 1025.07 1025.22 1025.38 1025.56 1025.75 1025.96 1026.16 1026.36 1026.54 1026.72 1026.87 1027.02 1027.15 1027.28 1027.38 1027.46 1027.51 1027.51 1027.46 1027.37
1019.37 1019.91 1020.38 1020.77 1021.09 1021.36 1021.60 1021.84 1022.09 1022.37 1022.67 1022.99 1023.30 1023.59 1023.86 1024.09 1024.29 1024.46 1024.62 1024.79 1024.96 1025.15 1025.35 1025.55 1025.76 1025.96 1026.15 1026.32 1026.47 1026.61 1026.73 1026.85 1026.95 1027.02 1027.07 1027.07 1027.03 1026.94
1018.74 1019.30 1019.79 1020.19 1020.53 1020.80 1021.06 1021.30 1021.57 1021.86 1022.17 1022.50 1022.83 1023.13 1023.41 1023.65 1023.86 1024.04 1024.20 1024.37 1024.54 1024.72 1024.91 1025.11 1025.31 1025.50 1025.67 1025.82 1025.96 1026.09 1026.21 1026.31 1026.41 1026.49 1026.55 1026.56 1026.54 1026.47
1018.11 1018.68 1019.19 1019.62 1019.98 1020.29 1020.57 1020.85 1021.14 1021.45 1021.78 1022.12 1022.45 1022.77 1023.04 1023.28 1023.48 1023.66 1023.81 1023.97 1024.13 1024.30 1024.48 1024.66 1024.83 1025.00 1025.14 1025.27 1025.38 1025.49 1025.59 1025.69 1025.79 1025.88 1025.95 1025.99 1026.00 1025.96
1017.53 1018.09 1018.61 1019.06 1019.45 1019.80 1020.12 1020.44 1020.76 1021.10 1021.45 1021.80 1022.13 1022.44 1022.71 1022.94 1023.13 1023.30 1023.45 1023.60 1023.74 1023.90 1024.06 1024.22 1024.37 1024.50 1024.61 1024.70 1024.78 1024.85 1024.94 1025.03 1025.12 1025.22 1025.32 1025.39 1025.42 1025.42
1017.07 1017.59 1018.09 1018.54 1018.95 1019.33 1019.69 1020.04 1020.39 1020.75 1021.12 1021.48 1021.82 1022.12 1022.38 1022.61 1022.80 1022.96 1023.11 1023.25 1023.40 1023.55 1023.69 1023.83 1023.94 1024.04 1024.10 1024.15 1024.19 1024.23 1024.28 1024.35 1024.45 1024.55 1024.66 1024.76 1024.82 1024.85
1016.80 1017.25 1017.70 1018.12 1018.52 1018.89 1019.26 1019.63 1020.00 1020.38 1020.76 1021.12 1021.46 1021.76 1022.02 1022.25 1022.44 1022.61 1022.77 1022.93 1023.08 1023.23 1023.37 1023.49 1023.58 1023.63 1023.66 1023.66 1023.65 1023.65 1023.67 1023.71 1023.79 1023.89 1024.01 1024.12 1024.21 1024.27
1016.78 1017.12 1017.48 1017.83 1018.17 1018.52 1018.87 1019.22 1019.59 1019.97 1020.34 1020.70 1021.03 1021.34 1021.60 1021.84 1022.04 1022.24 1022.42 1022.59 1022.77 1022.93 1023.07 1023.18 1023.25 1023.27 1023.26 1023.22 1023.16 1023.12 1023.10 1023.11 1023.17 1023.26 1023.37 1023.49 1023.59 1023.66
1017.01 1017.22 1017.46 1017.70 1017.96 1018.23 1018.53 1018.85 1019.18 1019.53 1019.89 1020.23 1020.56 1020.85 1021.12 1021.36 1021.59 1021.80 1022.01 1022.21 1022.41 1022.59 1022.74 1022.84 1022.90 1022.91 1022.86 1022.79 1022.70 1022.62 1022.56 1022.55 1022.58 1022.66 1022.77 1022.88 1022.98 1023.06
1017.45 1017.52 1017.62 1017.74 1017.89 1018.07 1018.28 1018.53 1018.81 1019.12 1019.43 1019.75 1020.05 1020.33 1020.59 1020.83 1021.07 1021.29 1021.52 1021.74 1021.95 1022.15 1022.31 1022.42 1022.47 1022.47 1022.42 1022.32 1022.21 1022.11 1022.04 1022.01 1022.03 1022.09 1022.19 1022.30 1022.39 1022.46
1018.03 1017.97 1017.93 1017.92 1017.95 1018.02 1018.14 1018.31 1018.52 1018.76 1019.02 1019.29 1019.55 1019.80 1020.04 1020.26 1020.48 1020.71 1020.93 1021.16 1021.38 1021.58 1021.74 1021.86 1021.92 1021.92 1021.86 1021.77 1021.67 1021.57 1021.50 1021.46 1021.48 1021.54 1021.63 1021.74 1021.83 1021.89
1018.66 1018.48 1018.33 1018.21 1018.12 1018.10 1018.12 1018.21 1018.34 1018.51 1018.71 1018.91 1019.12 1019.32 1019.51 1019.69 1019.87 1020.07 1020.26 1020.47 1020.67 1020.87 1021.03 1021.14 1021.21 1021.22 1021.19 1021.12 1021.04 1020.96 1020.91 1020.90 1020.93 1021.00 1021.10 1021.20 1021.28 1021.33
1019.25 1018.99 1018.76 1018.55 1018.39 1018.28 1018.23 1018.24 1018.30 1018.40 1018.53 1018.66 1018.80 1018.93 1019.05 1019.16 1019.29 1019.42 1019.57 1019.73 1019.89 1020.06 1020.20 1020.32 1020.39 1020.42 1020.42 1020.39 1020.34 1020.31 1020.29 1020.31 1020.37 1020.46 1020.56 1020.66 1020.74 1020.77
1019.75 1019.46 1019.18 1018.93 1018.71 1018.56 1018.46 1018.41 1018.42 1018.45 1018.51 1018.57 1018.62 1018.67 1018.71 1018.74 1018.78 1018.83 1018.91 1019.00 1019.12 1019.24 1019.35 1019.46 1019.53 1019.59 1019.61 1019.62 1019.62 1019.63 1019.66 1019.71 1019.79 1019.89 1020.00 1020.09 1020.15 1020.17
1020.14 1019.85 1019.56 1019.30 1019.08 1018.91 1018.78 1018.70 1018.66 1018.65 1018.64 1018.63 1018.60 1018.56 1018.51 1018.46 1018.41 1018.37 1018.37 1018.39 1018.43 1018.50 1018.59 1018.67 1018.74 1018.80 1018.85 1018.89 1018.93 1018.97 1019.03 1019.10 1019.19 1019.29 1019.38 1019.45 1019.48 1019.46
1020.43 1020.16 1019.90 1019.66 1019.46 1019.29 1019.17 1019.08 1019.01 1018.95 1018.89 1018.82 1018.73 1018.61 1018.48 1018.34 1018.21 1018.09 1018.01 1017.96 1017.94 1017.96 1018.00 1018.06 1018.12 1018.18 1018.23 1018.28 1018.33 1018.38 1018.44 1018.50 1018.57 1018.64 1018.69 1018.71 1018.68 1018.59
1020.65 1020.41 1020.19 1019.99 1019.82 1019.68 1019.57 1019.47 1019.39 1019.30 1019.20 1019.08 1018.94 1018.76 1018.57 1018.37 1018.18 1018.00 1017.86 1017.76 1017.69 1017.67 1017.67 1017.70 1017.74 1017.78 1017.81 1017.84 1017.87 1017.89 1017.91 1017.93 1017.93 1017.93 1017.89 1017.82 1017.71 1017.53
1020.79 1020.59 1020.42 1020.26 1020.13 1020.01 1019.91 1019.82 1019.72 1019.62 1019.50 1019.34 1019.16 1018.95 1018.73 1018.50 1018.28 1018.07 1017.90 1017.77 1017.68 1017.62 1017.60 1017.59 1017.59 1017.60 1017.59 1017.57 1017.54 1017.50 1017.44 1017.36 1017.27 1017.15 1017.00 1016.81 1016.58 1016.29
1020.84 1020.69 1020.55 1020.43 1020.32 1020.22 1020.13 1020.04 1019.93 1019.82 1019.67 1019.51 1019.32 1019.10 1018.88 1018.65 1018.43 1018.23 1018.06 1017.93 1017.83 1017.76 1017.71 1017.68 1017.64 1017.59 1017.52 1017.44 1017.32 1017.18 1017.01 1016.81 1016.59 1016.33 1016.04 1015.71 1015.34 1014.93
1020.76 1020.64 1020.53 1020.43 1020.34 1020.25 1020.16 1020.06 1019.94 1019.82 1019.67 1019.51 1019.32 1019.13 1018.93 1018.73 1018.55 1018.39 1018.25 1018.14 1018.05 1017.98 1017.92 1017.86 1017.77 1017.67 1017.53 1017.36 1017.14 1016.88 1016.59 1016.25 1015.88 1015.48 1015.04 1014.56 1014.05 1013.51
1020.50 1020.40 1020.31 1020.22 1020.13 1020.04 1019.93 1019.82 1019.70 1019.57 1019.43 1019.28 1019.12 1018.97 1018.82 1018.68 1018.56 1018.45 1018.36 1018.29 1018.23 1018.17 1018.10 1018.01 1017.88 1017.72 1017.51 1017.25 1016.93 1016.56 1016.14 1015.68 1015.17 1014.62 1014.04 1013.43 1012.79 1012.13
1020.00 1019.92 1019.83 1019.74 1019.65 1019.55 1019.43 1019.31 1019.18 1019.05 1018.92 1018.80 1018.69 1018.59 1018.50 1018.44 1018.38 1018.35 1018.32 1018.29 1018.26 1018.21 1018.13 1018.02 1017.86 1017.64 1017.36 1017.02 1016.62 1016.16 1015.63 1015.06 1014.44 1013.78 1013.09 1012.36 1011.61 1010.85
Thickness
5467 5468 5468 5470 5471 5472 5472 5473 5471 5471 5476 5479 5480 5482 5482 5483 5484 5485 5486 5487 5488 5489 5490 5491 5492 5494 5495 5497 5498 5499 5500 5502 5503 5505 5508 5510 5512 5514
5454 5455 5456 5457 5458 5458 5459 5460 5461 5462 5464 5469 5468 5470 5470 5470 5471 5472 5473 5474 5475 5476 5477 5478 5480 5481 5482 5484 5485 5487 5488 5489 5491 5493 5495 5497 5500 5501
5441 5443 5444 5444 5445 5445 5446 5446 5447 5448 5450 5454 5455 5456 5456 5457 5457 5458 5459 5460 5462 5463 5464 5465 5467 5468 5469 5471 5473 5474 5475 5477 5478 5481 5483 5485 5486 5489
5428 5430 5431 5431 5432 5432 5432 5433 5434 5435 5436 5439 5440 5441 5442 5442 5443 5444 5444 5446 5447 5448 5450 5451 5453 5454 5456 5458 5459 5461 5462 5464 5465 5467 5469 5472 5474 5476
5415 5416 5418 5418 5419 5419 5419 5420 5420 5421 5421 5423 5426 5426 5427 5427 5427 5428 5429 5430 5432 5434 5435 5437 5439 5440 5442 5444 5445 5447 5449 5451 5453 5454 5455 5458 5460 5462
5401 5403 5404 5405 5406 5406 5406 5407 5406 5406 5406 5408 5410 5411 5411 5412 5411 5413 5414 5415 5417 5418 5420 5422 5424 5426 5428 5430 5432 5433 5436 5437 5438 5440 5442 5445 5447 5449
5386 5388 5390 5392 5393 5393 5394 5394 5393 5393 5393 5394 5395 5396 5397 5396 5398 5398 5399 5400 5402 5403 5404 5407 5409 5411 5413 5415 5417 5419 5421 5423 5425 5426 5428 5430 5433 5435
5371 5373 5375 5377 5378 5379 5380 5381 5381 5381 5381 5381 5383 5384 5385 5384 5383 5383 5383 5384 5387 5389 5388 5391 5393 5396 5398 5400 5402 5404 5406 5408 5410 5412 5414 5416 5418 5421
5356 5358 5360 5363 5364 5365 5366 5367 5368 5369 5370 5370 5371 5373 5372 5372 5370 5369 5369 5370 5373 5375 5372 5377 5378 5381 5383 5385 5388 5389 5391 5393 5395 5396 5399 5401 5403 5406
5341 5344 5345 5348 5349 5349 5351 5352 5354 5356 5357 5358 5360 5361 5359 5358 5357 5357 5357 5356 5358 5359 5359 5362 5365 5367 5369 5371 5373 5375 5377 5378 5380 5382 5384 5386 5388 5391
5327 5330 5332 5334 5336 5336 5337 5339 5342 5343 5343 5344 5346 5347 5347 5346 5344 5342 5342 5342 5345 5347 5346 5347 5352 5353 5355 5359 5361 5362 5364 5365 5366 5368 5370 5372 5374 5376
5314 5316 5318 5321 5322 5323 5324 5325 5328 5330 5330 5330 5331 5333 5333 5333 5332 5332 5332 5331 5332 5334 5335 5335 5337 5336 5340 5346 5347 5349 5350 5351 5353 5355 5356 5358 5359 5361
5300 5303 5305 5307 5309 5311 5312 5313 5316 5317 5316 5316 5316 5318 5319 5319 5320 5320 5320 5320 5321 5322 5324 5322 5323 5323 5324 5330 5333 5335 5336 5338 5339 5341 5343 5345 5346 5348
5287 5289 5291 5293 5294 5296 5298 5300 5301 5301 5301 5301 5302 5303 5305 5306 5307 5307 5308 5308 5309 5311 5310 5309 5310 5311 5311 5313 5318 5321 5323 5324 5326 5328 5329 5330 5332 5334
5273 5276 5278 5280 5281 5282 5284 5285 5285 5285 5287 5288 5290 5291 5292 5292 5292 5293 5293 5294 5295 5296 5297 5298 5299 5299 5299 5301 5304 5306 5307 5310 5312 5313 5315 5316 5318 5320
5258 5261 5263 5265 5266 5268 5269 5269 5270 5271 5272 5274 5276 5277 5277 5277 5278 5278 5279 5279 5280 5282 5283 5284 5285 5285 5286 5289 5290 5292 5293 5295 5298 5299 5301 5303 5305 5307
5243 5245 5247 5249 5250 5252 5253 5254 5255 5256 5257 5259 5261 5262 5263 5264 5265 5265 5265 5265 5266 5268 5268 5268 5269 5270 5272 5274 5276 5279 5280 5281 5283 5285 5287 5290 5293 5295
5230 5231 5233 5235 5236 5238 5239 5240 5241 5242 5244 5245 5246 5247 5249 5250 5250 5251 5251 5251 5252 5254 5254 5254 5253 5254 5256 5260 5263 5266 5267 5268 5270 5271 5273 5276 5281 5283
5216 5217 5219 5221 5222 5224 5225 5226 5227 5229 5230 5231 5233 5234 5235 5236 5236 5237 5237 5237 5238 5239 5240 5240 5239 5240 5242 5249 5253 5253 5254 5255 5256 5257 5259 5262 5267 5271
5202 5204 5205 5206 5208 5209 5211 5212 5214 5215 5217 5218 5220 5221 5222 5222 5223 5224 5225 5224 5225 5225 5226 5226 5227 5229 5231 5235 5238 5241 5242 5242 5243 5245 5247 5249 5253 5257
5190 5190 5191 5192 5194 5195 5197 5199 5201 5203 5204 5206 5207 5208 5210 5210 5211 5212 5213 5214 5214 5214 5215 5217 5219 5219 5219 5218 5221 5227 5230 5231 5232 5233 5234 5236 5239 5244
5177 5178 5179 5180 5181 5182 5183 5186 5188 5190 5192 5194 5196 5197 5199 5199 5200 5201 5201 5202 5203 5204 5205 5206 5206 5205 5205 5207 5211 5215 5217 5218 5220 5222 5224 5227 5228 5233
5165 5166 5168 5169 5170 5171 5172 5174 5176 5179 5181 5183 5185 5187 5188 5189 5190 5190 5191 5191 5192 5193 5193 5193 5193 5193 5195 5197 5199 5201 5203 5205 5207 5211 5215 5218 5221 5225